Theta_e
292 292 292 293 296 297 299 299 299 300 300 300 300 299 299 298 298 297 298 297 297 298 297 297 298 297 299 300 300 300 302 301 301 306 308 307 307 304 305 306 306 308 308 309 309 309 309 306 303 305 305 305 305 303
292 291 292 291 292 296 297 298 298 299 299 300 299 299 299 299 298 297 297 297 297 297 297 296 296 298 298 298 298 299 299 301 304 305 305 307 304 303 306 306 305 306 307 308 308 308 304 304 304 304 304 304 303 301
292 291 291 291 291 291 294 297 297 297 297 297 299 299 299 299 298 297 297 297 297 297 297 296 296 296 297 298 297 299 299 300 301 301 303 303 305 303 306 304 305 303 303 304 305 305 304 303 302 302 302 302 300 299
290 290 288 290 290 290 291 291 293 293 294 296 297 297 297 297 297 296 296 297 297 297 299 299 297 295 296 297 297 298 298 299 299 299 301 303 304 302 304 303 304 304 304 303 303 303 303 302 301 301 301 301 300 299
290 290 289 288 289 290 290 291 295 296 296 297 298 298 297 296 296 297 297 297 297 297 300 299 297 296 296 294 294 295 295 295 296 299 300 302 303 301 300 298 301 302 302 303 304 303 303 303 301 300 300 300 298 296
291 290 290 288 288 289 290 290 292 295 295 296 298 299 298 297 297 297 297 297 297 297 297 299 295 294 294 293 294 294 294 293 295 296 300 300 300 300 302 303 302 301 301 301 302 300 299 299 298 296 294 292 291 290
290 290 290 289 287 288 288 289 291 292 292 292 296 299 299 299 298 298 298 298 298 297 297 298 298 292 292 292 293 293 293 293 294 296 297 298 297 297 301 302 301 301 301 300 299 297 293 294 293 292 291 289 287 287
289 289 290 289 287 287 288 288 289 290 291 291 291 291 291 294 298 299 298 298 298 297 297 299 298 292 290 292 294 292 293 293 293 295 293 294 294 294 299 299 300 300 299 296 293 291 291 290 289 289 288 287 285 284
289 289 289 290 287 286 287 288 288 288 289 290 290 290 290 289 290 295 295 295 295 296 297 295 299 301 288 289 290 291 291 295 292 294 293 290 295 296 297 297 296 296 292 294 289 287 287 287 288 288 286 285 284 284
289 290 289 289 289 286 286 286 287 288 288 288 289 289 289 288 290 294 293 292 292 294 293 293 287 293 287 289 292 290 291 295 295 292 285 289 293 294 295 293 293 291 289 287 286 282 284 284 285 285 285 285 285 285
288 289 289 289 289 288 286 286 286 287 288 288 288 288 287 289 293 292 289 288 285 288 285 283 284 291 284 291 294 286 293 291 295 291 290 295 294 293 289 288 288 289 287 286 287 287 287 287 287 286 284 283 283 283
289 288 288 289 289 288 287 286 286 286 287 287 287 287 286 287 286 288 289 281 283 292 280 284 282 281 281 282 287 285 290 287 293 279 287 293 295 288 286 284 285 285 284 285 285 285 284 283 283 283 282 282 281 280
290 289 289 289 286 287 287 288 288 286 285 286 286 286 285 284 288 288 288 289 286 280 277 278 282 280 279 280 283 285 287 290 278 285 291 294 287 284 284 283 283 282 281 281 281 281 282 282 282 281 281 280 279 279
290 289 289 289 287 287 288 288 288 287 285 286 285 286 289 288 287 291 293 294 281 279 278 280 278 282 278 282 281 287 282 277 287 288 291 294 285 284 283 282 281 281 281 281 281 281 281 280 280 280 279 279 279 279
291 290 290 290 287 289 289 288 288 288 284 285 284 288 285 283 278 277 277 276 277 277 279 279 278 279 279 281 278 280 281 285 288 291 293 286 283 284 283 283 282 281 281 281 281 281 281 281 280 280 279 279 278 277
290 290 291 290 289 289 289 289 289 288 284 284 282 285 275 278 282 273 273 275 277 277 278 278 279 281 284 282 281 283 288 288 291 288 286 283 284 284 284 284 283 282 281 281 281 281 281 281 280 280 279 278 278 277
290 290 290 291 290 289 289 289 287 284 283 282 284 281 279 279 282 278 276 275 276 277 283 281 282 286 274 281 282 284 286 291 287 284 283 284 285 284 284 283 282 281 281 281 280 280 279 279 279 278 278 278 277 277
290 290 290 289 290 289 289 288 286 281 280 282 281 279 276 275 274 275 275 276 275 275 276 281 276 280 283 285 287 287 282 283 284 284 284 284 285 285 284 283 282 282 281 280 279 279 278 278 278 278 277 277 276 276
290 290 290 290 290 289 289 286 282 281 281 277 275 274 274 273 273 273 273 273 274 274 274 273 278 281 285 285 287 287 284 284 284 284 284 284 283 283 282 282 281 280 280 279 279 279 278 278 277 276 276 277 277 276
290 289 289 289 289 289 288 285 281 278 279 274 272 271 271 270 270 270 270 270 271 273 273 274 277 283 283 283 283 283 283 282 282 283 283 284 283 282 282 281 281 280 279 279 278 278 278 277 277 276 276 276 276 276
289 289 290 290 290 288 288 287 282 277 274 272 270 270 269 268 267 266 267 267 269 272 276 277 279 281 281 281 281 281 281 281 281 281 283 283 283 282 281 280 280 279 279 279 279 278 278 278 277 276 276 276 275 275
290 290 290 289 289 287 285 284 280 275 274 270 270 269 270 270 269 266 266 267 270 274 276 277 278 279 279 279 279 279 280 280 280 280 281 282 282 281 281 280 280 280 279 279 279 278 278 277 276 276 275 275 274 274
290 289 288 288 286 282 278 277 275 273 276 273 268 271 271 269 266 265 267 269 272 274 275 276 276 276 276 277 277 277 278 279 279 279 279 280 280 279 279 279 279 279 278 278 278 277 277 276 275 274 274 274 273 273
288 288 286 285 283 279 273 272 271 272 271 272 274 277 272 268 264 265 270 272 273 274 274 274 274 274 274 274 275 275 277 277 279 279 278 278 278 278 278 278 278 277 277 277 276 276 276 275 274 274 273 273 273 272
286 285 283 281 275 272 273 272 272 272 275 275 275 276 270 264 270 270 271 274 273 274 273 273 272 272 272 273 273 274 275 276 276 276 276 276 276 276 276 276 276 276 276 275 275 274 274 274 274 273 273 273 272 271
286 284 281 282 275 276 276 275 273 274 275 275 275 267 266 270 272 276 275 273 273 273 272 272 272 272 272 273 273 274 274 275 275 276 276 276 276 275 275 275 274 274 274 273 273 272 272 272 273 272 272 272 270 270
286 284 276 276 275 274 273 272 272 274 275 275 273 268 271 276 278 276 274 273 272 272 273 273 273 273 273 274 275 275 275 275 275 274 274 274 274 273 273 272 272 272 272 272 272 271 271 271 271 271 270 270 270 270
282 277 279 273 272 274 277 275 275 275 276 275 272 273 276 278 279 274 272 272 272 273 274 274 274 274 274 274 274 274 274 274 273 273 272 272 272 272 272 271 271 271 271 271 271 271 271 270 270 270 270 270 270 270
274 274 275 273 272 273 275 277 277 277 275 273 276 277 275 273 274 274 274 273 272 273 274 274 273 273 274 274 273 273 272 272 271 271 270 270 269 269 270 270 270 270 270 270 270 270 270 270 270 270 270 270 270 270
272 273 275 275 276 277 274 273 271 271 272 272 272 272 273 273 273 273 273 273 272 273 273 273 273 274 273 272 272 272 272 271 271 270 270 270 270 270 270 270 270 270 270 270 270 271 271 270 270 269 268 268 267 267
271 272 273 275 274 268 268 269 269 270 270 270 270 270 271 272 272 272 272 272 272 272 272 272 273 272 271 271 271 271 271 271 270 270 270 270 270 270 270 270 270 270 270 269 268 268 267 268 268 268 268 269 269 269
270 272 273 273 270 266 267 267 267 267 267 268 268 268 269 270 270 271 270 270 271 271 271 272 271 271 271 272 272 272 272 272 272 271 271 271 270 269 268 268 268 268 269 269 269 269 269 269 269 269 269 269 268 268
268 269 269 268 267 266 266 267 267 267 266 267 266 266 266 267 270 269 269 269 269 270 271 270 270 271 272 271 272 272 272 271 271 270 268 268 269 269 270 270 270 269 269 269 269 269 269 269 269 269 269 269 269 269
Wind_Speed
21 19 20 18 8 5 9 11 10 13 13 12 10 8 4 1 3 4 8 11 3 5 4 2 4 3 3 10 6 4 7 5 3 5 5 3 4 6 6 9 8 13 8 9 10 11 16 24 5 9 14 22 27 17
21 18 16 16 15 8 3 3 2 5 9 13 11 10 8 7 6 6 8 10 10 6 4 2 1 3 3 5 1 13 5 1 6 3 1 0 3 3 3 6 13 8 13 12 9 6 0 11 18 22 27 23 23 24
18 17 12 12 11 10 6 3 2 5 8 12 12 15 14 13 9 7 7 8 9 6 7 3 3 4 5 6 4 4 4 3 4 3 3 1 5 4 6 8 10 9 16 6 13 17 14 16 18 24 23 27 27 23
14 16 12 9 9 8 7 7 6 8 9 11 14 17 15 14 11 9 7 6 4 4 2 3 6 4 4 4 7 9 1 2 2 2 2 3 4 6 3 4 4 7 6 10 10 14 19 21 26 23 26 26 26 27
16 13 11 9 8 7 7 8 5 8 8 7 9 12 16 15 12 10 10 10 7 3 2 6 11 11 10 6 6 5 7 8 3 3 4 4 4 2 2 1 7 17 15 10 11 15 14 20 19 19 24 30 29 26
14 14 12 8 8 8 7 6 6 6 10 9 4 1 6 9 9 8 5 6 10 6 3 4 6 6 6 5 6 7 6 4 5 4 3 7 10 2 4 10 27 19 20 23 18 21 21 22 21 18 16 20 21 21
14 13 13 12 7 8 8 7 4 3 3 7 8 1 5 7 9 7 5 2 5 6 3 4 3 4 5 4 2 2 2 2 4 3 5 4 2 5 6 19 16 21 26 32 32 21 16 22 12 16 15 16 17 17
16 12 13 12 10 9 9 8 5 5 6 5 5 4 5 7 11 14 17 17 12 7 5 3 2 3 1 0 0 2 1 3 6 4 2 2 2 5 8 10 20 30 33 26 25 24 22 15 14 14 14 14 15 16
17 14 12 12 11 9 10 10 9 7 8 10 8 10 8 5 5 6 9 10 11 8 3 3 3 2 3 2 2 0 2 3 2 3 2 2 4 9 8 11 17 25 19 25 24 17 15 15 14 14 16 17 18 17
17 15 13 14 11 10 10 11 10 10 9 10 10 3 4 4 7 5 2 2 4 5 5 3 2 2 1 4 4 2 4 2 3 2 0 4 5 19 24 21 17 15 19 17 11 10 15 16 17 18 19 18 18 20
15 14 14 15 14 10 10 11 10 10 10 5 3 3 5 4 4 4 3 2 0 3 4 2 4 2 2 3 2 2 1 1 3 3 3 3 5 5 14 17 17 14 14 14 13 9 10 13 17 19 20 20 19 19
15 15 15 14 13 11 11 10 9 9 6 5 8 13 7 3 2 2 2 1 4 3 5 3 3 4 2 3 3 2 2 1 5 1 2 4 5 9 9 13 15 14 16 17 15 10 10 13 13 17 19 21 20 20
17 15 14 15 13 10 10 11 11 9 9 8 4 3 3 3 3 5 5 3 3 7 9 6 3 4 3 2 1 2 3 4 1 3 4 5 1 7 12 13 16 17 18 17 12 8 9 8 12 14 16 17 17 17
16 15 14 16 12 11 11 13 13 10 4 4 4 4 4 4 6 5 3 1 3 4 12 7 5 2 3 3 1 4 1 1 3 4 7 2 5 10 12 12 15 17 17 15 11 10 9 8 12 14 14 14 15 16
14 16 17 17 12 12 14 13 13 10 4 5 4 5 7 5 6 4 5 1 3 12 12 5 3 2 2 2 2 1 2 5 6 5 2 3 6 8 12 14 15 17 16 14 11 10 9 9 12 13 13 14 14 14
12 16 20 15 15 16 17 17 15 7 5 6 8 4 4 2 3 4 7 5 9 13 7 3 3 2 5 3 5 9 4 7 4 3 4 7 7 9 12 13 15 16 15 14 12 11 11 12 13 13 14 15 15 15
12 20 16 16 17 16 17 18 6 7 7 6 5 13 10 8 5 3 5 5 15 12 3 2 5 8 2 2 4 5 5 2 3 5 7 7 9 10 12 15 16 17 16 15 13 13 13 14 15 16 16 16 16 15
19 17 15 19 18 16 17 7 6 6 8 11 4 5 7 8 4 4 6 10 14 8 4 3 3 5 6 6 4 4 12 13 10 9 8 10 11 12 14 15 16 15 15 15 14 14 15 15 15 14 14 15 16 16
17 17 14 16 17 14 4 5 7 5 8 5 7 9 7 7 9 10 8 11 15 9 3 2 4 4 4 4 4 7 11 13 10 10 11 14 13 13 14 15 15 15 14 15 15 14 14 13 14 15 16 17 16 16
17 20 18 16 12 7 5 6 6 7 4 3 4 3 4 4 3 5 8 11 13 5 4 5 6 6 6 6 9 11 10 11 12 10 12 16 16 14 13 14 14 15 16 16 16 16 16 17 18 19 19 18 18 17
19 21 21 19 20 16 7 6 7 5 4 3 3 3 3 3 4 4 5 11 7 6 5 17 19 20 16 17 16 13 12 10 13 12 9 14 17 16 15 16 16 17 18 18 18 18 18 18 17 19 19 18 17 16
21 24 23 22 13 11 11 13 6 3 3 3 2 3 3 2 3 4 8 7 8 11 13 10 15 15 15 16 18 17 14 12 13 13 11 9 12 17 17 16 16 17 17 17 17 17 16 17 18 19 19 18 18 18
21 13 11 9 10 9 4 8 6 5 3 3 2 2 3 2 3 5 5 8 11 13 17 19 21 20 20 19 16 14 12 11 11 11 10 8 8 10 11 12 13 15 15 16 16 16 17 17 18 20 19 19 18 18
17 8 7 8 14 3 6 5 5 3 2 2 3 3 2 3 4 3 4 5 9 9 10 13 15 14 13 12 13 11 11 10 10 10 9 9 8 8 9 10 10 12 15 16 16 16 18 18 19 19 19 18 18 17
6 8 8 6 5 5 5 5 4 3 4 4 4 3 3 5 2 4 4 3 4 6 9 11 9 7 6 7 6 7 8 8 8 8 6 7 7 8 8 10 10 10 10 12 13 13 14 16 17 17 17 16 16 16
7 13 12 8 6 6 7 6 7 7 4 5 6 3 4 2 3 6 3 3 3 6 7 4 1 2 0 1 0 2 3 5 6 6 5 6 7 8 8 8 8 9 9 9 10 11 11 12 13 15 15 14 14 15
7 7 6 6 8 7 3 3 4 3 6 6 4 5 4 4 6 3 2 3 3 2 1 2 3 2 2 2 3 3 3 2 2 3 4 6 7 8 9 8 7 7 7 7 7 8 9 9 10 10 11 12 12 13
6 9 7 11 5 6 4 4 6 7 4 6 9 6 6 5 2 1 1 2 0 4 4 5 6 6 5 3 1 2 3 5 6 6 6 6 6 6 6 5 5 5 4 4 4 4 5 6 6 7 8 8 10 12
4 7 10 4 3 4 5 7 5 7 7 10 4 4 3 3 2 2 2 1 4 6 7 6 4 2 1 3 4 4 4 4 4 4 5 4 3 2 4 4 5 4 4 3 3 2 2 3 3 5 8 9 12 13
4 10 3 4 5 6 3 5 3 4 7 7 3 2 2 3 3 4 4 4 6 6 5 4 2 1 1 2 4 5 6 7 7 8 7 7 8 8 7 6 6 5 4 3 1 1 3 4 5 6 7 9 11 12
7 6 2 2 1 2 3 5 4 4 4 4 5 4 3 3 3 4 6 7 7 8 7 5 2 2 4 4 6 7 9 10 11 11 10 9 9 8 8 7 6 5 4 3 2 2 3 4 6 7 9 11 13 16
4 3 2 3 2 2 3 4 3 2 1 2 1 1 1 2 1 1 1 2 6 9 8 6 6 7 7 7 8 8 8 8 7 7 6 7 7 8 8 8 8 7 6 5 5 6 7 9 11 13 15 17 19 21
3 3 2 3 2 2 4 3 2 2 1 1 1 1 1 1 1 1 2 1 4 9 10 9 10 10 9 8 7 5 4 4 6 7 8 9 9 9 9 8 7 6 7 8 9 10 12 14 16 18 19 21 23 24
Wind_Direction
15 28 25 30 47 70 94 116 129 131 132 130 133 139 130 81 25 346 295 345 268 251 282 347 336 41 98 198 213 221 151 173 159 207 211 159 211 205 192 203 177 195 201 217 235 243 248 227 154 206 236 245 249 245
13 14 28 30 43 51 112 140 205 185 194 189 197 214 234 267 288 308 297 309 325 281 265 290 115 160 167 173 275 184 301 142 129 190 211 173 190 178 211 235 206 213 209 213 208 230 122 235 223 233 243 252 252 251
11 12 22 35 40 40 39 44 264 257 256 252 248 238 254 267 272 281 284 301 314 304 296 290 258 252 213 205 208 268 223 133 95 158 160 223 245 166 201 228 241 220 246 251 259 254 243 258 256 243 243 246 251 259
10 7 16 19 28 26 18 1 308 292 292 280 263 242 247 258 267 275 293 291 306 310 294 286 289 255 261 228 224 238 320 154 178 184 200 215 230 196 249 278 254 240 175 219 246 257 262 273 261 261 258 250 253 260
359 5 3 9 10 12 4 5 7 356 355 332 316 240 230 240 255 274 293 286 278 269 280 282 286 263 257 253 232 232 211 210 178 228 222 230 255 206 182 312 249 227 228 218 235 248 241 256 255 253 253 255 253 249
353 355 355 346 356 2 1 352 358 333 359 8 353 242 226 236 238 267 299 298 264 243 310 295 288 275 275 272 256 245 250 235 198 224 249 248 226 206 256 245 245 245 240 236 249 253 253 254 263 264 250 245 241 234
344 347 348 343 323 338 356 349 327 349 2 28 36 35 239 238 227 228 234 260 357 198 255 286 257 303 304 308 334 331 279 205 215 249 237 261 234 199 253 253 252 254 249 242 243 243 252 252 257 263 253 242 231 220
338 341 339 338 320 316 322 342 324 293 296 294 303 299 282 267 249 246 251 260 257 211 227 259 260 288 225 126 118 207 193 210 224 260 254 234 213 212 253 264 260 255 250 241 238 235 242 246 245 241 236 228 211 203
336 335 333 330 321 312 311 307 318 311 294 297 296 292 283 236 234 244 247 239 221 222 253 216 235 249 163 162 189 327 228 248 226 250 207 235 211 226 239 237 239 245 233 240 231 235 239 242 238 229 219 213 208 199
331 329 330 328 320 306 305 309 299 304 307 300 296 261 230 216 270 257 232 239 219 223 234 246 219 175 193 172 170 169 201 246 244 171 179 229 254 262 259 255 252 253 240 237 208 221 225 227 223 218 213 212 211 208
335 336 326 321 318 308 302 306 309 300 302 295 265 258 265 268 203 212 207 222 278 247 214 235 211 182 190 198 208 242 257 194 242 146 235 236 260 233 246 236 232 227 216 208 215 223 232 236 226 214 209 209 208 207
335 328 329 329 324 313 318 317 313 305 273 274 284 287 275 236 213 223 197 157 217 240 181 190 162 192 199 180 224 188 252 189 253 84 242 251 238 227 226 215 209 207 203 202 204 215 214 217 220 210 203 197 196 197
319 320 324 328 336 331 327 325 319 310 296 281 253 248 209 203 201 208 211 211 234 183 181 170 159 165 155 171 181 223 231 227 92 223 237 240 228 230 212 207 203 201 198 198 203 209 203 209 192 193 192 192 195 196
304 320 327 323 310 324 325 324 322 318 293 241 210 254 202 197 243 203 216 137 150 145 155 145 119 186 164 163 135 220 113 287 245 243 241 253 313 240 212 209 205 198 191 193 195 190 186 186 186 186 189 199 202 201
295 300 309 327 290 316 322 317 315 305 251 242 201 235 217 248 257 265 240 229 178 155 142 123 103 191 137 180 209 107 201 241 225 236 251 300 294 216 205 202 196 193 191 188 185 186 188 190 191 193 197 198 199 200
283 286 291 312 304 303 307 313 312 272 236 230 231 258 228 268 207 226 222 227 182 166 154 126 126 167 227 194 178 216 213 221 233 218 260 293 236 212 206 198 191 188 187 186 191 194 193 193 194 195 196 198 201 202
277 271 295 282 297 306 306 307 287 217 228 229 242 235 235 275 262 201 184 203 177 160 199 160 188 219 96 219 233 203 221 240 223 255 265 239 217 212 198 192 189 190 194 198 202 202 200 200 200 200 202 201 203 204
261 282 282 289 273 292 299 264 232 239 245 234 227 227 228 233 242 247 210 185 170 196 184 217 134 203 215 208 220 221 231 240 245 259 256 215 200 197 197 199 198 200 204 207 209 211 213 214 213 209 205 204 206 210
271 272 270 272 280 258 246 245 227 257 241 250 251 252 251 254 248 241 226 204 195 191 208 224 244 224 228 221 251 249 233 225 227 230 226 211 206 203 201 203 206 212 214 217 220 222 223 224 223 219 217 215 217 222
259 254 257 262 260 240 236 241 224 252 259 240 243 240 231 232 245 234 219 201 188 199 212 218 223 226 223 264 283 271 268 257 235 217 213 213 212 210 211 215 219 220 221 222 223 225 225 224 222 220 221 224 227 232
252 252 255 257 242 222 238 233 233 238 246 240 254 225 242 250 231 205 198 181 191 223 235 235 242 249 263 275 278 280 263 262 237 235 255 220 217 213 217 219 220 223 225 228 231 232 233 235 232 231 232 233 234 238
247 245 246 242 229 220 229 214 220 211 216 234 233 222 234 225 202 195 175 195 233 235 224 248 258 271 279 279 273 268 263 258 243 238 242 232 218 219 223 226 226 230 234 237 239 242 246 244 240 236 235 237 239 242
233 243 243 218 216 216 212 198 190 204 223 161 187 244 216 211 195 178 240 232 250 249 248 261 273 277 277 276 277 265 250 245 239 230 229 222 227 222 226 232 236 239 243 247 248 246 246 243 239 237 236 238 241 243
242 223 207 216 205 160 165 174 184 180 179 213 201 249 203 168 169 201 253 249 246 269 277 283 284 284 280 273 263 256 241 224 230 235 232 228 226 226 230 237 241 246 247 250 250 248 244 241 239 237 238 240 242 242
199 213 207 198 183 130 182 168 177 186 239 169 201 229 182 162 215 228 238 257 252 283 299 302 288 272 275 285 280 252 231 217 218 217 221 233 239 243 246 247 246 247 250 252 251 248 244 239 238 239 239 240 240 241
210 203 190 192 159 186 182 166 195 200 173 189 219 119 157 190 236 244 222 225 269 298 314 319 17 137 187 355 217 180 188 191 198 213 222 229 232 236 245 249 251 253 254 251 248 245 243 240 236 235 236 238 239 242
217 192 180 165 159 143 117 91 129 172 188 203 173 167 173 219 234 238 239 254 288 303 90 119 123 130 157 152 111 110 105 145 215 241 253 262 261 257 252 252 251 251 254 250 245 240 239 236 230 231 234 238 244 249
224 172 177 169 155 174 145 164 184 204 197 163 142 187 198 212 256 211 259 314 257 154 142 128 119 111 100 92 46 288 280 271 267 266 264 264 263 256 252 244 237 238 237 229 226 230 233 234 233 234 239 246 255 264
183 167 141 139 132 189 207 193 206 201 180 171 192 195 217 231 233 247 288 237 171 163 153 145 131 113 14 337 322 304 291 285 283 289 282 272 267 241 208 200 197 182 165 154 160 169 184 214 241 259 267 272 274 278
168 165 152 157 178 202 169 194 200 184 187 189 197 231 242 245 258 258 254 223 196 191 188 177 178 308 22 40 57 71 86 91 91 92 91 95 98 101 107 116 125 130 130 128 107 324 293 287 284 284 287 289 291 292
148 161 136 157 127 162 173 178 177 183 193 215 230 236 252 293 297 276 246 227 217 213 210 209 209 149 132 117 108 102 101 104 104 101 99 97 99 100 101 101 100 94 81 65 44 13 353 338 327 320 314 311 308 305
134 161 162 170 141 168 153 171 177 186 198 202 251 241 277 254 248 280 344 256 222 211 200 188 171 153 137 124 116 113 113 115 113 107 105 103 103 103 99 93 87 79 69 51 26 5 350 338 330 324 319 315 311 307
104 118 111 113 122 160 181 153 167 151 160 176 196 231 228 201 63 355 342 301 181 170 165 159 152 145 135 126 118 114 115 124 127 121 118 113 106 96 86 75 61 41 25 11 360 350 343 338 333 328 324 321 318 315